Date,TemperatureHighF,TemperatureAvgF,TemperatureLowF,DewpointHighF,DewpointAvgF,DewpointLowF,HumidityHigh,HumidityAvg,HumidityLow,PressureMaxIn,PressureMinIn,WindSpeedMaxMPH,WindSpeedAvgMPH,GustSpeedMaxMPH,PrecipitationSumIn
2013-9-1,88.9,85.1,82.4,78.4,77.1,75.6,86,77,66,29.99,29.91,7,4,14,0.00
2013-9-2,90.5,85.2,82.2,79.4,77.5,73.7,87,78,62,30.03,29.92,8,4,13,0.00
2013-9-3,88.7,83.3,75.7,78.7,76.7,71.7,94,81,66,30.00,29.90,10,4,19,3.09
2013-9-4,88.0,84.8,82.0,79.6,78.0,76.0,88,80,70,30.02,29.91,10,7,17,0.07
2013-9-5,87.6,85.4,82.9,79.1,77.5,75.4,85,77,70,30.03,29.95,12,9,20,0.00
2013-9-6,88.2,85.4,82.6,78.8,77.3,74.1,85,77,67,30.01,29.90,11,8,18,0.00
2013-9-7,85.6,82.6,79.2,78.3,75.2,71.1,90,79,65,29.99,29.86,12,6,21,0.17
2013-9-8,87.1,82.2,75.7,78.4,75.1,70.2,91,80,58,29.94,29.83,11,4,20,0.19
2013-9-9,86.9,83.5,80.1,78.5,76.1,73.0,85,78,69,29.96,29.86,12,6,22,0.02
2013-9-10,87.3,83.4,78.6,78.6,76.3,72.5,91,79,68,30.00,29.91,14,8,26,0.09
2013-9-11,86.4,82.9,79.0,79.8,76.5,73.9,88,81,70,30.00,29.92,12,7,26,0.35
2013-9-12,86.0,82.8,79.9,78.7,76.8,74.5,90,82,73,29.98,29.87,9,5,14,0.00
2013-9-13,86.9,83.9,81.3,77.9,75.9,74.5,85,77,67,29.89,29.80,8,4,12,0.00
2013-9-14,86.9,84.2,81.3,78.0,76.0,73.1,86,77,65,29.94,29.81,12,6,24,0.02
2013-9-15,86.5,80.9,72.0,80.1,76.9,69.9,94,88,78,30.01,29.88,19,6,42,1.81
2013-9-16,82.9,80.6,76.3,78.6,76.1,72.1,94,86,78,30.03,29.90,20,8,30,0.02
2013-9-17,82.4,79.8,73.6,77.6,76.0,71.5,95,88,79,30.01,29.89,15,6,30,0.89
2013-9-18,84.0,81.4,78.3,80.7,77.9,75.1,95,89,84,29.98,29.88,9,3,14,0.50
2013-9-19,86.9,82.5,75.7,78.7,75.7,72.8,94,80,65,29.98,29.92,9,4,17,0.32
2013-9-20,85.6,81.8,78.4,77.5,74.6,68.8,93,79,63,29.98,29.87,11,7,18,0.00
2013-9-21,88.0,82.4,79.2,79.5,75.0,71.2,89,79,66,29.88,29.76,9,3,14,0.04
2013-9-22,88.9,84.0,79.9,78.7,76.3,72.8,89,78,69,29.87,29.76,10,4,18,0.00
2013-9-23,88.0,83.9,77.0,80.6,78.6,74.6,94,84,76,29.96,29.84,17,5,33,1.19
2013-9-24,89.1,85.2,82.6,80.9,79.2,77.0,92,82,72,29.97,29.88,8,4,14,0.00
2013-9-25,89.4,85.7,83.1,81.1,78.8,75.7,90,80,65,29.91,29.83,10,5,17,0.00
2013-9-26,88.0,85.1,83.3,79.6,78.3,76.4,87,80,69,29.90,29.82,15,9,23,0.00
2013-9-27,86.9,84.0,80.2,79.5,75.8,70.9,90,77,60,29.91,29.82,12,7,22,0.28
2013-9-28,87.1,82.8,79.2,78.7,74.8,71.8,88,77,67,29.94,29.84,8,3,16,0.02
2013-9-29,86.2,82.4,75.0,76.4,73.9,67.7,88,76,65,29.94,29.85,9,5,19,0.16
2013-9-30,87.1,83.7,79.2,77.5,75.0,72.3,85,75,64,29.97,29.87,12,7,28,0.25